Radiation Dose at Monitoring Post of Fukushima Daini Nuclear Power Station
Date,Time,MP-1(microSv/h),MP-2(microSv/h),MP-3(microSv/h),MP-4(microSv/h),MP-5(microSv/h),MP-6(microSv/h),MP-7(microSv/h),Wind Direction,Wind Velocity(m/s),Rain
2022/01/26,00:00,0.159,0.147,0.231,0.222,0.224,0.126,0.080,-,CALM,No
2022/01/26,00:10,0.159,0.146,0.230,0.224,0.224,0.127,0.081,east-southeast,0.5,No
2022/01/26,00:20,0.160,0.147,0.230,0.223,0.224,0.126,0.080,-,CALM,No
2022/01/26,00:30,0.159,0.147,0.231,0.224,0.225,0.127,0.081,south,1.8,No
2022/01/26,00:40,0.159,0.147,0.232,0.221,0.225,0.127,0.080,south,1.6,No
2022/01/26,00:50,0.160,0.148,0.231,0.223,0.226,0.126,0.080,southeast,1.0,No
2022/01/26,01:00,0.160,0.148,0.231,0.224,0.225,0.126,0.081,south-southeast,1.6,No
2022/01/26,01:10,0.160,0.146,0.231,0.224,0.224,0.126,0.080,southeast,1.3,No
2022/01/26,01:20,0.160,0.148,0.231,0.223,0.225,0.126,0.080,southeast,1.0,No
2022/01/26,01:30,0.159,0.148,0.232,0.223,0.225,0.126,0.080,southeast,1.3,No
2022/01/26,01:40,0.159,0.148,0.231,0.223,0.224,0.126,0.081,southeast,1.3,No
2022/01/26,01:50,0.160,0.148,0.231,0.223,0.225,0.127,0.081,south-southeast,1.0,No
2022/01/26,02:00,0.161,0.147,0.230,0.224,0.225,0.126,0.080,south,1.9,No
2022/01/26,02:10,0.160,0.147,0.231,0.223,0.225,0.125,0.081,south-southwest,2.1,No
2022/01/26,02:20,0.160,0.149,0.231,0.223,0.226,0.127,0.080,south,1.6,No
2022/01/26,02:30,0.161,0.149,0.232,0.223,0.225,0.127,0.081,south,1.1,No
2022/01/26,02:40,0.160,0.148,0.232,0.223,0.225,0.127,0.081,south,1.6,No
2022/01/26,02:50,0.160,0.148,0.231,0.224,0.224,0.127,0.081,south-southeast,0.8,No
2022/01/26,03:00,0.160,0.148,0.231,0.223,0.225,0.127,0.081,south,1.4,No
2022/01/26,03:10,0.161,0.149,0.231,0.223,0.226,0.127,0.081,south-southwest,1.3,No
2022/01/26,03:20,0.162,0.147,0.231,0.224,0.225,0.128,0.081,south,1.0,Yes
2022/01/26,03:30,0.160,0.147,0.232,0.224,0.225,0.128,0.081,south-southwest,1.0,Yes
2022/01/26,03:40,0.160,0.148,0.232,0.223,0.225,0.127,0.080,south-southwest,1.6,Yes
2022/01/26,03:50,0.161,0.148,0.232,0.223,0.227,0.128,0.080,south-southwest,1.9,Yes
2022/01/26,04:00,0.162,0.148,0.232,0.225,0.225,0.126,0.082,southwest,1.3,Yes
2022/01/26,04:10,0.161,0.149,0.233,0.225,0.226,0.128,0.081,west-northwest,0.7,Yes
2022/01/26,04:20,0.162,0.149,0.233,0.224,0.226,0.128,0.082,northwest,1.1,Yes
2022/01/26,04:30,0.163,0.149,0.232,0.225,0.226,0.129,0.083,west-northwest,2.4,Yes
2022/01/26,04:40,0.162,0.149,0.233,0.225,0.228,0.129,0.083,north-northwest,1.9,Yes
2022/01/26,04:50,0.162,0.149,0.234,0.226,0.226,0.129,0.083,north-northwest,2.4,Yes
2022/01/26,05:00,0.162,0.150,0.234,0.226,0.226,0.129,0.083,west-northwest,2.7,Yes
2022/01/26,05:10,0.163,0.149,0.234,0.225,0.228,0.128,0.082,northwest,2.7,Yes
2022/01/26,05:20,0.163,0.149,0.233,0.225,0.226,0.128,0.083,northwest,2.9,Yes
2022/01/26,05:30,0.163,0.149,0.233,0.225,0.225,0.128,0.082,northwest,3.5,Yes
2022/01/26,05:40,0.161,0.149,0.233,0.225,0.226,0.128,0.082,northwest,3.5,Yes
2022/01/26,05:50,0.161,0.149,0.233,0.225,0.226,0.128,0.081,northwest,3.5,Yes
2022/01/26,06:00,0.163,0.149,0.231,0.224,0.226,0.128,0.083,northwest,3.8,Yes
2022/01/26,06:10,0.162,0.149,0.232,0.224,0.225,0.128,0.082,northwest,3.5,Yes
2022/01/26,06:20,0.162,0.149,0.231,0.224,0.226,0.128,0.082,northwest,3.5,Yes
2022/01/26,06:30,0.161,0.149,0.232,0.224,0.225,0.129,0.083,northwest,3.8,Yes
2022/01/26,06:40,0.162,0.149,0.232,0.223,0.226,0.128,0.082,north-northwest,3.8,Yes
2022/01/26,06:50,0.160,0.149,0.231,0.224,0.226,0.129,0.083,northwest,3.8,Yes
2022/01/26,07:00,0.163,0.150,0.231,0.224,0.226,0.129,0.082,north-northwest,3.8,Yes
2022/01/26,07:10,0.161,0.149,0.231,0.224,0.228,0.128,0.082,north-northwest,2.5,Yes
2022/01/26,07:20,0.162,0.149,0.231,0.223,0.226,0.129,0.084,northwest,2.2,Yes
2022/01/26,07:30,0.162,0.150,0.232,0.225,0.227,0.129,0.083,northwest,2.1,Yes
2022/01/26,07:40,0.162,0.150,0.232,0.224,0.226,0.130,0.084,north-northwest,1.6,Yes
2022/01/26,07:50,0.163,0.151,0.232,0.224,0.226,0.131,0.085,north-northwest,2.7,Yes
2022/01/26,08:00,0.163,0.151,0.231,0.225,0.226,0.132,0.085,northwest,3.5,Yes
2022/01/26,08:10,0.163,0.151,0.233,0.224,0.226,0.131,0.085,northwest,3.8,Yes
2022/01/26,08:20,0.164,0.151,0.232,0.224,0.227,0.131,0.086,north-northwest,4.8,Yes
2022/01/26,08:30,0.163,0.152,0.232,0.225,0.228,0.130,0.086,northwest,4.4,Yes
2022/01/26,08:40,0.163,0.151,0.231,0.224,0.227,0.131,0.086,north-northwest,5.0,Yes
2022/01/26,08:50,0.163,0.150,0.231,0.223,0.226,0.131,0.085,north-northwest,5.2,Yes
2022/01/26,09:00,0.163,0.150,0.231,0.223,0.225,0.130,0.085,north-northwest,4.9,Yes
2022/01/26,09:10,0.163,0.151,0.231,0.223,0.226,0.130,0.085,north-northwest,4.4,Yes
2022/01/26,09:20,0.161,0.150,0.230,0.222,0.226,0.129,0.084,north-northwest,4.1,Yes
2022/01/26,09:30,0.161,0.148,0.229,0.222,0.224,0.128,0.083,north-northwest,3.8,Yes
2022/01/26,09:40,0.161,0.147,0.229,0.222,0.225,0.129,0.084,north-northwest,4.0,Yes
2022/01/26,09:50,0.160,0.150,0.229,0.222,0.225,0.128,0.083,north-northwest,3.0,Yes
2022/01/26,10:00,0.161,0.148,0.229,0.220,0.225,0.129,0.083,north-northwest,2.4,Yes
2022/01/26,10:10,0.160,0.147,0.228,0.219,0.225,0.127,0.081,north-northwest,2.5,Yes
2022/01/26,10:20,0.159,0.148,0.228,0.221,0.223,0.127,0.081,north-northwest,1.9,Yes
2022/01/26,10:30,0.159,0.148,0.228,0.220,0.224,0.127,0.082,north-northwest,1.9,Yes
2022/01/26,10:40,0.159,0.146,0.227,0.221,0.224,0.126,0.081,north-northwest,1.9,No
2022/01/26,10:50,0.158,0.146,0.227,0.219,0.223,0.127,0.081,north,3.0,No
2022/01/26,11:00,0.158,0.146,0.228,0.221,0.223,0.126,0.080,north-northwest,2.7,No
2022/01/26,11:10,0.158,0.146,0.226,0.219,0.223,0.125,0.081,north-northwest,2.4,No
2022/01/26,11:20,0.158,0.146,0.227,0.220,0.223,0.125,0.081,north,2.7,No
2022/01/26,11:30,0.158,0.147,0.226,0.220,0.222,0.126,0.081,north,2.5,No
2022/01/26,11:40,0.158,0.146,0.226,0.219,0.223,0.125,0.079,north,2.4,No
2022/01/26,11:50,0.157,0.145,0.227,0.218,0.223,0.125,0.080,north,2.7,No
2022/01/26,12:00,0.157,0.144,0.226,0.218,0.222,0.125,0.079,north,3.3,No
2022/01/26,12:10,0.157,0.145,0.225,0.219,0.224,0.125,0.080,north,3.3,No
2022/01/26,12:20,0.157,0.145,0.227,0.219,0.223,0.125,0.079,north,3.0,No
2022/01/26,12:30,0.157,0.145,0.227,0.218,0.223,0.125,0.079,north,3.3,No
2022/01/26,12:40,0.158,0.144,0.225,0.219,0.223,0.124,0.079,north,4.4,No
2022/01/26,12:50,0.157,0.145,0.225,0.218,0.223,0.126,0.079,north,4.4,No
2022/01/26,13:00,0.157,0.145,0.226,0.218,0.224,0.126,0.080,north-northeast,5.2,No
2022/01/26,13:10,0.158,0.145,0.225,0.219,0.222,0.125,0.079,north-northeast,5.0,No
2022/01/26,13:20,0.156,0.145,0.225,0.219,0.223,0.125,0.080,north-northeast,5.4,No
2022/01/26,13:30,0.157,0.144,0.226,0.219,0.224,0.125,0.078,north-northeast,5.8,No
2022/01/26,13:40,0.157,0.145,0.227,0.219,0.221,0.124,0.079,north-northeast,6.1,No
2022/01/26,13:50,0.157,0.145,0.226,0.218,0.223,0.125,0.079,north-northeast,4.8,No
2022/01/26,14:00,0.157,0.145,0.226,0.219,0.223,0.125,0.079,north,4.3,No
2022/01/26,14:10,0.157,0.145,0.226,0.219,0.223,0.125,0.079,north,4.7,No
2022/01/26,14:20,0.157,0.145,0.227,0.218,0.224,0.125,0.079,north,4.0,No
2022/01/26,14:30,0.158,0.145,0.226,0.218,0.222,0.124,0.079,north,4.4,No
2022/01/26,14:40,0.158,0.145,0.227,0.219,0.222,0.125,0.079,north,4.1,No
2022/01/26,14:50,0.158,0.145,0.228,0.220,0.224,0.123,0.079,north,4.3,No
2022/01/26,15:00,0.158,0.146,0.227,0.219,0.224,0.124,0.079,north,4.9,No
2022/01/26,15:10,0.158,0.146,0.227,0.220,0.223,0.125,0.080,north,4.1,No
2022/01/26,15:20,0.159,0.146,0.228,0.219,0.224,0.125,0.080,north,3.5,No
2022/01/26,15:30,0.158,0.145,0.227,0.219,0.223,0.125,0.079,north,4.1,No
2022/01/26,15:40,0.159,0.146,0.227,0.219,0.222,0.124,0.080,north,3.0,No
2022/01/26,15:50,0.157,0.145,0.227,0.220,0.222,0.125,0.080,north-northwest,3.0,No
2022/01/26,16:00,0.158,0.145,0.227,0.220,0.223,0.125,0.079,north-northwest,3.2,No
2022/01/26,16:10,0.159,0.145,0.227,0.220,0.223,0.125,0.079,north-northwest,3.5,No
2022/01/26,16:20,0.159,0.146,0.226,0.219,0.223,0.125,0.080,north-northwest,3.3,No
2022/01/26,16:30,0.158,0.145,0.226,0.220,0.224,0.125,0.079,north-northwest,3.7,No
2022/01/26,16:40,0.158,0.145,0.227,0.220,0.222,0.125,0.079,north-northwest,3.3,No
2022/01/26,16:50,0.158,0.145,0.226,0.221,0.224,0.125,0.080,north-northwest,4.3,No
2022/01/26,17:00,0.159,0.146,0.227,0.220,0.223,0.126,0.079,north-northwest,4.1,No
2022/01/26,17:10,0.158,0.145,0.227,0.220,0.222,0.126,0.080,north-northwest,3.8,No
2022/01/26,17:20,0.159,0.145,0.227,0.220,0.221,0.125,0.080,north-northwest,4.3,No
2022/01/26,17:30,0.159,0.146,0.226,0.220,0.223,0.126,0.079,north-northwest,4.7,No
2022/01/26,17:40,0.159,0.145,0.226,0.220,0.223,0.125,0.079,north-northwest,4.4,No
2022/01/26,17:50,0.158,0.144,0.226,0.219,0.223,0.126,0.080,north-northwest,4.6,No
2022/01/26,18:00,0.158,0.145,0.226,0.219,0.222,0.124,0.080,northwest,4.3,No
2022/01/26,18:10,0.158,0.145,0.227,0.219,0.222,0.125,0.079,north-northwest,4.8,No
2022/01/26,18:20,0.158,0.146,0.227,0.220,0.222,0.126,0.079,north-northwest,3.3,No
2022/01/26,18:30,0.157,0.145,0.226,0.220,0.223,0.125,0.080,north-northwest,4.1,No
2022/01/26,18:40,0.158,0.145,0.227,0.219,0.223,0.125,0.079,northwest,4.3,No
2022/01/26,18:50,0.158,0.145,0.227,0.220,0.223,0.125,0.080,northwest,3.3,No
2022/01/26,19:00,0.158,0.145,0.227,0.219,0.223,0.126,0.080,west-northwest,2.4,Yes
2022/01/26,19:10,0.158,0.145,0.226,0.220,0.223,0.125,0.079,north-northwest,1.9,No
2022/01/26,19:20,0.159,0.145,0.226,0.220,0.223,0.126,0.081,north-northwest,1.8,No
2022/01/26,19:30,0.158,0.146,0.227,0.220,0.223,0.126,0.079,northwest,2.7,No
2022/01/26,19:40,0.158,0.146,0.228,0.219,0.223,0.125,0.080,northwest,2.7,Yes
2022/01/26,19:50,0.159,0.145,0.228,0.220,0.223,0.126,0.079,northwest,2.7,Yes
2022/01/26,20:00,0.158,0.146,0.228,0.220,0.224,0.126,0.080,north-northwest,1.9,No
2022/01/26,20:10,0.159,0.146,0.228,0.219,0.222,0.125,0.079,north-northwest,2.7,Yes
2022/01/26,20:20,0.158,0.145,0.227,0.221,0.223,0.126,0.081,north,0.7,Yes
2022/01/26,20:30,0.158,0.146,0.228,0.220,0.223,0.126,0.080,north-northeast,0.5,Yes
2022/01/26,20:40,0.158,0.146,0.226,0.219,0.222,0.126,0.080,east-southeast,0.5,Yes
2022/01/26,20:50,0.158,0.146,0.227,0.220,0.224,0.125,0.081,south-southwest,0.7,No
2022/01/26,21:00,0.159,0.146,0.228,0.221,0.226,0.126,0.081,south,0.5,No
2022/01/26,21:10,0.159,0.146,0.229,0.220,0.224,0.126,0.080,south,0.8,No
2022/01/26,21:20,0.158,0.147,0.228,0.221,0.224,0.125,0.080,south-southeast,1.6,No
2022/01/26,21:30,0.158,0.147,0.228,0.221,0.223,0.127,0.081,south,1.9,No
2022/01/26,21:40,0.159,0.147,0.227,0.221,0.223,0.126,0.081,south,1.6,Yes
2022/01/26,21:50,0.159,0.146,0.227,0.220,0.224,0.126,0.081,south-southeast,1.6,Yes
2022/01/26,22:00,0.160,0.147,0.227,0.221,0.224,0.125,0.081,south,2.2,Yes
2022/01/26,22:10,0.158,0.146,0.228,0.220,0.224,0.126,0.080,south,3.0,Yes
2022/01/26,22:20,0.158,0.145,0.227,0.220,0.224,0.126,0.081,south-southeast,4.4,Yes
2022/01/26,22:30,0.158,0.146,0.227,0.220,0.224,0.126,0.081,south,3.2,Yes
2022/01/26,22:40,0.159,0.145,0.228,0.220,0.223,0.126,0.080,south-southeast,3.8,Yes
2022/01/26,22:50,0.158,0.147,0.229,0.220,0.224,0.125,0.081,south-southeast,4.4,No
2022/01/26,23:00,0.159,0.146,0.227,0.220,0.224,0.125,0.081,south-southeast,3.7,No
2022/01/26,23:10,0.158,0.146,0.229,0.220,0.224,0.126,0.080,south-southeast,3.3,No
2022/01/26,23:20,0.158,0.146,0.228,0.221,0.224,0.126,0.080,south-southeast,4.8,No
2022/01/26,23:30,0.158,0.147,0.227,0.220,0.223,0.125,0.080,south-southeast,4.0,No
2022/01/26,23:40,0.158,0.147,0.228,0.221,0.225,0.126,0.080,south-southeast,4.1,Yes
2022/01/26,23:50,0.159,0.146,0.228,0.221,0.223,0.126,0.081,south,3.5,Yes
